Tracking 30116 objects as of 10-Feb-2025
HD Live streaming from Space Station
objects crossing your sky now

QIANFAN-48

Track QIANFAN-48 now!
10-day predictions
QIANFAN-48 is classified as:


NORAD ID: 62249
Int'l Code: 2024-232N
Perigee: 853.5 km
Apogee: 868.0 km
Inclination: 89.0 °
Period: 102.0 minutes
Semi major axis: 7231 km
RCS: Unknown
Launch date: December 5, 2024
Source: People's Republic of China (PRC)
Launch site: Taiyaun Space Center, China (TSC)
Your satellite tracking list
Your tracking list is empty




NASA's NSSDC Master Catalog

Two Line Element Set (TLE):
1 62249U 24232N   25041.46813949  .00000673  00000-0  36259-3 0  9996
2 62249  88.9798  72.4160 0010016   4.8982 355.2300 14.11676623 57910
Source of the keplerian elements: AFSPC